Location: Wildcat Hills Observatory
(41.6350°N, 103.6812°W)
Time: 08:46:44
(UTC-06:00)

Cosmos 1110 Rocket - Pass Details

Date: 23 June 2018
Orbit: 753 x 781 km, 74.0° (Epoch: 19 July)

Event Time Altitude Azimuth Distance (km) Brightness Sun altitude
Rises 21:41:58 0° 341° (NNW) 3,214 8.5 -10.8°
Reaches altitude 10° 21:44:20 10° 342° (NNW) 2,286 7.6 -11.1°
Maximum altitude 21:49:32 82° 70° (ENE) 767 4.0 -11.8°
Enters shadow 21:53:48 15° 158° (SSE) 1,933 5.5 -12.4°
